Regional Weather Roundup
Issued by NWS Charleston, WV

Home | Current Version | Previous Version | Text Only | Print | Product List | Glossary Off
Versions: 1 2 3 4 5 6 7 8 9 10 11 12 13 14 15 16 17 18 19 20 21 22 23 24 25 26 27 28 29 30 31 32 33 34 35 36 37 38 39 40 41 42 43 44 45 46 47 48 49 50

496
ASUS41 KRLX 100410
RWRRLX
West Virginia Regional Weather Roundup
National Weather Service Charleston WV
1100 PM EST TUE FEB 09 2016

Note: "fair" indicates few or no clouds below 12,000 feet with no
significant weather and/or obstructions to visibility.

WVZ003-100500-
Northern Panhandle of West Virginia

CITY           SKY/WX    TMP DP  RH WIND       PRES   REMARKS
WHEELING       CLOUDY    24  18  77 SW10G20   29.72S
$$

WVZ009-100500-
Northwest West Virginia

CITY           SKY/WX    TMP DP  RH WIND       PRES   REMARKS
PARKERSBURG    CLOUDY    23  19  85 W9        29.84R
$$

WVZ006-100500-
Western West Virginia

CITY           SKY/WX    TMP DP  RH WIND       PRES   REMARKS
HUNTINGTON     LGT SNOW  23  16  74 W10       29.89R
$$

WVZ015-100500-
West Central West Virginia

CITY           SKY/WX    TMP DP  RH WIND       PRES   REMARKS
CHARLESTON     LGT SNOW  24  17  74 W12G20    29.86R
$$

WVZ022-031-100500-
North Central West Virginia

CITY           SKY/WX    TMP DP  RH WIND       PRES   REMARKS
CLARKSBURG     LGT SNOW  22  20  92 SW7       29.77S
MORGANTOWN     LGT SNOW  22  17  81 SW7       29.75S
$$

WVZ025-035-042-045-100500-
Southern West Virginia

CITY           SKY/WX    TMP DP  RH WIND       PRES   REMARKS
BECKLEY        LGT SNOW  17  13  84 W10       29.75S FOG     WCI   5
LOGAN          LGT SNOW  21  16  79 W8G16     29.84R
BLUEFIELD      LGT SNOW  15  11  83 W13G22    29.74S FOG     WCI   1
LEWISBURG      FLURRIES  22  15  74 W6        29.75R
$$

WVZ047-100500-
Northern Mountains of West Virginia

CITY           SKY/WX    TMP DP  RH WIND       PRES   REMARKS
ELKINS         FLURRIES  20  13  74 W9        29.74S WCI   9
$$

WVZ052-100500-
Eastern Panhandle of West Virginia

CITY           SKY/WX    TMP DP  RH WIND       PRES   REMARKS
MARTINSBURG    CLOUDY    28  18  66 W8G18     29.69S
PETERSBURG     CLOUDY    28  12  52 CALM      29.73F
$$




USA.gov is the U.S. government's official web portal to all federal, state and local government web resources and services.